SL-16 DEB, 27007

Orbit data source: Space-Track

SL-16 DEB, 27007 is space debris in SSO originally from a launch on Mon, 10 Dec 2001 UTC launched from the Tyuratam Missile And Space Complex (TTMTR). Debris objects in space refer to the collection of defunct objects orbiting the Earth. Examples of debris include non-operational satellites, rocket bodies, and fragments generated from explosions, collisions, or faulty payload assembly.

Loading next visibility...
Identifier
27007, 2001-056G
Orbit
SSO
Last TLE update
2 days ago
Origin
Manufacturer
NII EM
Mission
Spacecraft
Bus & Motor
AR, Unknown motor
Mass
344 kg wet, 344 kg dry
Launch date (UTC)
2001-12-10 (24 years ago)
Launch vehicle
Unknown
Launch site
Tyuratam Missile And Space Complex (TTMTR)
Object type
Payload
Rocket body
Debris
Shape & HBR
Box, 3.9 m
Radar Cross Section
11.505 m², Small (<0.1 m²)

Expand to show TLE details & history

TLE from 2 days ago
0 SL-16 DEB
1 27007U 01056G   25182.31148811  .00000572  00000-0  60523-3 0  9996
2 27007  99.4657 331.8819 0014780 149.6299 210.5712 13.78893073180254
Epoch: 2025-07-01T07:28Z
TLE epoch observation values (Epoch: 2025-07-01T07:28:32.572Z)
Latitude
0.00003°
Longitude
-59.86258°
Altitude
980.003 km
Speed
7.357 km/s
True Right ascension
22h 07m 31s
True Declination
0° 00' 00"
Sunlit
Object was in full shadow at epoch
Visualization orbit readout
Latitude
73.9861°
Longitude
157.70546°
Altitude
972.184 km
Speed
7.376 km/s
Apparent Right ascension
13h 24m 58s
Apparent Declination
23° 23' 25"
Sunlit
Object is in daylight
Visualization observer readout
Local Sidereal Time
01:44:25
Azimuth
4.992° NNE
Elevation
-26.531°
Doppler factor
1
Orbital elements
Apogee altitude
975.92 km
Perigee altitude
954.213 km
Semi-major axis
7,343.203 km
Eccentricity
0.00148
Inclination
99.4657°
RAAN
331.8819°
Arg. of periapsis
149.6299°
True anomaly
Unknown
Mean anomaly
210.5712°
Eccentric anomaly
Unknown
Mean motion
3.44917 °/min
Orbital period
104.37 mins
BSTAR
0.00060523
Loading maneuver chart data...
Loading SW <> Apogee altitude chart data...
Loading historical data...
Loading historical data...
Loading historical data...
Loading historical data...
Loading historical data...
Loading historical data...
Loading historical data...

SL-16 DEB Visibility forecast

Observer location: undefined°, undefined°

Span
Click to sort rows by Start time (UTC) header in descending order
Start Az.
Max El. time (UTC)
Max El. Az.
Max El.
End time (UTC)
End Az.
11 mins2025-07-03 22:45:31.135Z19.221° NNE2025-07-03 22:50:31.135Z92.981° ESE43.884°2025-07-03 22:56:31.135Z188.979° SSW
6 mins2025-07-04 00:30:31.135Z328.897° NNW2025-07-04 00:32:31.135Z306.488° NW16.721°2025-07-04 00:36:31.135Z263.165° W
8 mins2025-07-04 08:46:31.135Z109.182° ESE2025-07-04 08:50:31.135Z56.619° ENE24.262°2025-07-04 08:54:31.135Z11.657° NNE
10 mins2025-07-04 10:28:31.135Z192.92° SSW2025-07-04 10:32:31.135Z251.344° W36.16°2025-07-04 10:38:31.135Z333.251° NNW
|